Weather History for KIBM - May, 2013

Change the Weather History Date:

Wednesday, May 8, 2013

  Actual Average (KSNY) Record (KSNY)
Temperature  
Mean Temperature 54 °F 55 °F  
Max Temperature 70 °F 70 °F 88 °F (2011)
Min Temperature 39 °F 41 °F 25 °F (2010)
Degree Days  
Heating Degree Days 10 10  
Month to date heating degree days 89  
Since 1 July heating degree days 6001  
Cooling Degree Days 0 0  
Month to date cooling degree days 0  
Year to date cooling degree days 1  
Growing Degree Days 4 (Base 50)    
Moisture  
Dew Point 41 °F    
Average Humidity 66    
Maximum Humidity 91    
Minimum Humidity 28    
Precipitation  
Precipitation 0.03 in 0.09 in 0.86 in (1957)
Month to date precipitation 0.81  
Year to date precipitation 4.48  
Sea Level Pressure  
Sea Level Pressure 29.99 in    
Wind  
Wind Speed 7 mph (East)    
Max Wind Speed 18 mph    
Max Gust Speed 25 mph    
Visibility 10 miles    
Events Rain , Thunderstorm    
T = Trace of Precipitation, MM = Missing Value Source: NWS Daily Summary

Daily Weather History Graph

Daily Weather History Graph

Search for Another Location

Airport or City:

Trip Planner

Search our weather history database for the weather conditions in past years. The results will help you decide how hot, cold, wet, or windy it might be!

Date:

Astronomy

May. 08, 2013 Rise Set
Actual Time 6:43 AM CDT 8:59 PM CDT
Civil Twilight 6:12 AM CDT 9:30 PM CDT
Nautical Twilight 5:34 AM CDT 10:08 PM CDT
Astronomical Twilight 4:53 AM CDT 10:50 PM CDT
Moon 5:53 AM CDT (5/8) 7:59 PM CDT (5/8)
Length of Visible Light 15h 17m
Length of Day
14h 16m
Waning Crescent, 2% of the Moon is Illuminated
May 8
Waning Crescent
May 9
New
May 17
First Quarter
May 24
Full
May 31
Last Quarter

Hourly Weather History & Observations

Time (CDT) Temp. Windchill Dew Point Humidity Pressure Visibility Wind Dir Wind Speed Gust Speed Precip Events Conditions
12:15 AM 47.1 °F - 40.6 °F 78% 29.97 in 10.0 mi WSW 6.9 mph - N/A   Clear
12:35 AM 47.7 °F - 40.5 °F 76% 29.96 in 10.0 mi WSW 6.9 mph - N/A   Clear
12:55 AM 46.2 °F 41.2 °F 40.3 °F 80% 29.98 in 10.0 mi East 10.4 mph - N/A   Mostly Cloudy
1:15 AM 50.4 °F - 41.9 °F 73% 30.00 in 10.0 mi SE 8.1 mph - N/A   Overcast
1:35 AM 50.9 °F - 41.0 °F 69% 30.00 in 10.0 mi SSE 8.1 mph 16.1 mph N/A   Mostly Cloudy
1:55 AM 48.2 °F - 40.8 °F 76% 30.00 in 10.0 mi Calm Calm - N/A   Scattered Clouds
2:15 AM 47.1 °F - 40.5 °F 78% 29.98 in 10.0 mi WSW 6.9 mph - N/A Thunderstorm Scattered Clouds
2:35 AM 45.9 °F - 40.1 °F 80% 29.97 in 10.0 mi Calm Calm - N/A   Clear
2:55 AM 46.6 °F - 40.3 °F 79% 29.95 in 10.0 mi SSW 3.5 mph - N/A   Clear
3:15 AM 44.1 °F - 38.7 °F 81% 29.94 in 10.0 mi Calm Calm - N/A   Clear
3:35 AM 42.3 °F - 38.1 °F 85% 29.94 in 10.0 mi Calm Calm - N/A   Clear
3:55 AM 44.1 °F 41.5 °F 39.2 °F 83% 29.94 in 10.0 mi WSW 4.6 mph - N/A   Clear
4:15 AM 43.9 °F 42.3 °F 39.2 °F 84% 29.94 in 10.0 mi West 3.5 mph - N/A   Clear
4:35 AM 43.3 °F 40.7 °F 39.0 °F 85% 29.94 in 10.0 mi West 4.6 mph - N/A   Clear
4:55 AM 42.3 °F 40.5 °F 37.9 °F 85% 29.94 in 10.0 mi WNW 3.5 mph - N/A   Clear
5:15 AM 40.5 °F - 37.0 °F 88% 29.94 in 10.0 mi Calm Calm - N/A   Clear
5:35 AM 39.4 °F - 36.1 °F 88% 29.94 in 10.0 mi Calm Calm - N/A   Clear
5:55 AM 41.0 °F 37.1 °F 37.8 °F 88% 29.94 in 10.0 mi West 5.8 mph - N/A   Clear
6:15 AM 39.9 °F 35.1 °F 37.0 °F 89% 29.94 in 10.0 mi SW 6.9 mph - N/A   Clear
6:35 AM 39.2 °F - 36.7 °F 91% 29.94 in 10.0 mi Calm Calm - N/A   Clear
6:55 AM 39.6 °F 35.4 °F 36.5 °F 89% 29.95 in 10.0 mi SE 5.8 mph - N/A   Clear
7:15 AM 40.1 °F 36.1 °F 37.6 °F 91% 29.95 in 10.0 mi SW 5.8 mph - N/A   Clear
7:35 AM 41.0 °F - 38.1 °F 89% 29.96 in 10.0 mi Calm Calm - N/A   Clear
7:55 AM 43.2 °F 41.5 °F 39.4 °F 86% 29.97 in 10.0 mi North 3.5 mph - N/A   Clear
8:15 AM 48.7 °F - 42.4 °F 79% 29.97 in 10.0 mi NNW 5.8 mph - N/A   Clear
8:35 AM 51.4 °F - 41.5 °F 69% 29.97 in 10.0 mi Calm Calm - N/A   Clear
8:55 AM 51.8 °F - 42.4 °F 70% 29.97 in 10.0 mi North 4.6 mph - N/A   Clear
9:15 AM - - - N/A% - - North - - N/A   Unknown
9:35 AM 55.8 °F - 40.3 °F 56% 29.98 in - Calm Calm - 0.03 in   Clear
9:55 AM 58.1 °F - 41.2 °F 53% 29.98 in 10.0 mi North 8.1 mph - 0.03 in   Clear
10:15 AM - - - N/A% 29.99 in 10.0 mi North 8.1 mph - N/A   Clear
10:35 AM 62.6 °F - 41.5 °F 46% 29.99 in 10.0 mi North 9.2 mph - N/A   Clear
10:55 AM 64.2 °F - 40.6 °F 42% 29.99 in 10.0 mi NE 8.1 mph - N/A   Clear
11:15 AM 63.9 °F - 38.7 °F 39% 29.99 in 10.0 mi NE 10.4 mph - N/A   Clear
11:35 AM 65.1 °F - 38.7 °F 38% 29.99 in 10.0 mi NE 8.1 mph - N/A   Clear
11:55 AM 67.3 °F - 39.4 °F 36% 30.00 in 10.0 mi NE 11.5 mph 17.3 mph N/A   Clear
12:15 PM 66.0 °F - 38.8 °F 37% 30.00 in 10.0 mi NE 12.7 mph 18.4 mph N/A   Scattered Clouds
12:35 PM 65.8 °F - 39.6 °F 38% 30.00 in 10.0 mi NE 9.2 mph - N/A   Mostly Cloudy
12:55 PM 68.0 °F - 37.8 °F 33% 29.99 in 10.0 mi East 10.4 mph 17.3 mph N/A   Scattered Clouds
1:15 PM 68.9 °F - 36.5 °F 30% 29.99 in 10.0 mi NE 9.2 mph 19.6 mph N/A   Clear
1:35 PM 67.5 °F - 37.8 °F 34% 29.98 in 10.0 mi ENE 9.2 mph 21.9 mph N/A   Clear
1:55 PM 70.0 °F - 36.5 °F 29% 29.98 in 10.0 mi East 10.4 mph - N/A   Scattered Clouds
2:15 PM 68.9 °F - 35.2 °F 29% 29.97 in 10.0 mi ENE 8.1 mph - N/A   Mostly Cloudy
2:35 PM 67.8 °F - 35.4 °F 30% 29.97 in 10.0 mi ENE 13.8 mph - N/A   Scattered Clouds
2:55 PM 70.7 °F - 36.3 °F 28% 29.97 in 10.0 mi ENE 13.8 mph 19.6 mph N/A   Scattered Clouds
3:35 PM 67.1 °F - 40.5 °F 38% 29.96 in 10.0 mi ESE 15.0 mph - N/A   Overcast
3:55 PM 65.5 °F - 40.5 °F 40% 29.96 in 10.0 mi ESE 16.1 mph - N/A   Overcast
4:15 PM 66.2 °F - 39.7 °F 38% 29.96 in 10.0 mi ESE 12.7 mph - N/A   Mostly Cloudy
4:35 PM 65.3 °F - 42.1 °F 43% 29.97 in 10.0 mi East 17.3 mph - N/A   Mostly Cloudy
4:55 PM 61.2 °F - 42.8 °F 51% 29.97 in 10.0 mi ESE 18.4 mph 25.3 mph N/A   Overcast
5:15 PM 61.2 °F - 44.8 °F 55% 29.97 in 10.0 mi ESE 15.0 mph - N/A   Overcast
5:35 PM 60.3 °F - 43.0 °F 53% 29.98 in 10.0 mi East 15.0 mph - N/A   Overcast
5:55 PM 58.1 °F - 42.8 °F 57% 29.99 in 10.0 mi SE 16.1 mph - N/A   Overcast
6:15 PM 59.0 °F - 43.2 °F 56% 30.00 in 10.0 mi ESE 10.4 mph - N/A   Overcast
6:35 PM 59.9 °F - 42.6 °F 53% 30.00 in 10.0 mi ESE 8.1 mph - N/A   Overcast
6:55 PM 58.8 °F - 43.5 °F 57% 30.01 in 10.0 mi South 17.3 mph 23.0 mph N/A   Overcast
7:15 PM 53.6 °F - 44.8 °F 72% 30.01 in 10.0 mi SSW 15.0 mph - N/A   Overcast
7:35 PM 52.0 °F - 46.2 °F 81% 30.02 in 10.0 mi SSW 16.1 mph - N/A Rain Light Rain
7:55 PM 51.1 °F - 47.3 °F 87% 30.03 in 10.0 mi SSW 10.4 mph - N/A   Overcast
8:15 PM 51.1 °F - 46.0 °F 83% 30.03 in 10.0 mi SSW 9.2 mph - N/A   Mostly Cloudy
8:35 PM 50.9 °F - 46.4 °F 85% 30.05 in 10.0 mi West 8.1 mph - N/A   Mostly Cloudy
8:55 PM 50.9 °F - 46.6 °F 85% 30.06 in 10.0 mi West 6.9 mph - N/A   Overcast
9:15 PM 50.2 °F - 46.4 °F 87% 30.06 in 10.0 mi West 8.1 mph - N/A   Overcast
9:35 PM 49.5 °F - 45.5 °F 86% 30.06 in 10.0 mi West 8.1 mph - N/A   Mostly Cloudy
10:15 PM 48.2 °F - 45.0 °F 89% 30.06 in 10.0 mi WNW 10.4 mph - N/A   Clear
10:35 PM 47.3 °F - 44.6 °F 90% 30.07 in 10.0 mi WNW 13.8 mph - N/A   Scattered Clouds
11:35 PM 47.3 °F - 44.2 °F 89% 30.08 in 10.0 mi NW 9.2 mph - N/A   Scattered Clouds
11:55 PM 48.2 °F - 43.7 °F 84% 30.08 in 10.0 mi NW 10.4 mph - N/A   Clear